IW1RCO-13 Weather Reports


time (UTC)temp
F
wind
direction
speed
knots
gust
knots
rain 1hr
in
rain 24hr
in
rain mn
in
humidity
%
barometer
mb
20260902153430 81 0.0 0.0 0.00 0.00 0.00 70 1017.2
20260902152927 81 0.0 0.0 0.00 0.00 0.00 71 1017.2
20260902152430 82 0.0 0.0 0.00 0.00 0.00 70 1016.8
20260902151927 81 0.0 0.0 0.00 0.00 0.00 70 1017.5
20260902151430 81 0.0 0.0 0.00 0.00 0.00 70 1017.4
20260902150926 83 0.0 0.0 0.00 0.00 0.00 67 1017.9
20260902143932 81 0.0 0.0 0.00 0.00 0.00 70 1017.5
20260902143429 82 0.0 0.0 0.00 0.00 0.00 68 1017.4
20260902142932 82 0.0 0.0 0.00 0.00 0.00 70 1017.0
20260902142429 80 0.0 0.0 0.00 0.00 0.00 73 1019.0
20260902141932 80 0.0 0.0 0.00 0.00 0.00 74 1017.2
20260902141428 81 0.0 0.0 0.00 0.00 0.00 73 1017.2
20260902140931 81 0.0 0.0 0.00 0.00 0.00 72 1017.2
20260902140428 83 0.0 0.0 0.00 0.00 0.00 70 1017.7
20260902135931 81 0.0 0.0 0.00 0.00 0.00 71 1017.8
20260902135428 82 0.0 0.0 0.00 0.00 0.00 70 1018.6
20260902134931 82 0.0 0.0 0.00 0.00 0.00 70 1017.3
20260902134427 82 0.0 0.0 0.00 0.00 0.00 70 1017.6
20260902133931 82 0.0 0.0 0.00 0.00 0.00 70 1017.7
20260902133427 83 0.0 0.0 0.00 0.00 0.00 67 1018.9
20260902132930 85 0.0 0.0 0.00 0.00 0.00 64 1017.9
20260902132427 84 0.0 0.0 0.00 0.00 0.00 67 1018.7
20260902131930 83 0.0 0.0 0.00 0.00 0.00 67 1017.9
20260902131427 84 0.0 0.0 0.00 0.00 0.00 67 1019.2
20260902130930 83 0.0 0.0 0.00 0.00 0.00 68 1018.4
20260902130427 83 0.0 0.0 0.00 0.00 0.00 70 1017.6
20260902125930 83 0.0 0.0 0.00 0.00 0.00 70 1018.6
20260902125426 83 0.0 0.0 0.00 0.00 0.00 67 1019.1
20260902124929 82 0.0 0.0 0.00 0.00 0.00 70 1019.0
20260902124426 81 0.0 0.0 0.00 0.00 0.00 70 1017.8
20260902123929 81 0.0 0.0 0.00 0.00 0.00 70 1018.9
20260902123432 81 0.0 0.0 0.00 0.00 0.00 72 1018.8
20260902122929 82 0.0 0.0 0.00 0.00 0.00 70 1019.7
20260902122432 80 0.0 0.0 0.00 0.00 0.00 74 1019.5
20260902121929 80 0.0 0.0 0.00 0.00 0.00 75 1018.9
20260902121432 81 0.0 0.0 0.00 0.00 0.00 72 1019.2
20260902120928 81 0.0 0.0 0.00 0.00 0.00 70 1019.3
20260902120431 79 0.0 0.0 0.00 0.00 0.00 75 1019.6
20260902115928 78 0.0 0.0 0.00 0.00 0.00 77 1019.1
20260902115431 79 0.0 0.0 0.00 0.00 0.00 78 1019.7
20260902114928 78 0.0 0.0 0.00 0.00 0.00 79 1019.3
20260902114431 78 0.0 0.0 0.00 0.00 0.00 76 1019.4
20260902113928 78 0.0 0.0 0.00 0.00 0.00 79 1019.9
20260902113431 75 0.0 0.0 0.00 0.00 0.00 83 1019.3
20260902103926 78 0.0 0.0 0.00 0.00 0.00 77 1019.9
20260902103429 78 0.0 0.0 0.00 0.00 0.00 78 1019.6
20260902102932 77 0.0 0.0 0.00 0.00 0.00 78 1019.0
20260902102429 78 0.0 0.0 0.00 0.00 0.00 76 1019.1
20260902101932 79 0.0 0.0 0.00 0.00 0.00 74 1019.7
20260902101428 79 0.0 0.0 0.00 0.00 0.00 76 1019.3
20260902100932 78 0.0 0.0 0.00 0.00 0.00 77 1019.6
20260902100428 77 0.0 0.0 0.00 0.00 0.00 75 1019.1
20260902095931 78 0.0 0.0 0.00 0.00 0.00 73 1019.8
20260902095428 78 0.0 0.0 0.00 0.00 0.00 74 1020.0
20260902094931 77 0.0 0.0 0.00 0.00 0.00 74 1019.8
20260902094428 78 0.0 0.0 0.00 0.00 0.00 76 1019.7
20260902093931 78 0.0 0.0 0.00 0.00 0.00 75 1019.8
20260902093428 77 0.0 0.0 0.00 0.00 0.00 76 1019.8
20260902092931 75 0.0 0.0 0.00 0.00 0.00 77 1019.5
20260902092427 75 0.0 0.0 0.00 0.00 0.00 77 1019.7
20260902091930 76 0.0 0.0 0.00 0.00 0.00 77 1019.6
20260902091427 76 0.0 0.0 0.00 0.00 0.00 77 1019.2
20260902090930 76 0.0 0.0 0.00 0.00 0.00 76 1019.4
20260902090427 76 0.0 0.0 0.00 0.00 0.00 75 1019.6
20260902085930 75 0.0 0.0 0.00 0.00 0.00 77 1019.6
20260902085426 75 0.0 0.0 0.00 0.00 0.00 77 1019.5
20260902084930 75 0.0 0.0 0.00 0.00 0.00 78 1019.7
20260902084426 75 0.0 0.0 0.00 0.00 0.00 79 1019.7
20260902083929 74 0.0 0.0 0.00 0.00 0.00 78 1019.8
20260902083426 74 0.0 0.0 0.00 0.00 0.00 79 1019.5
20260902082929 74 0.0 0.0 0.00 0.00 0.00 80 1019.6
20260902082432 74 0.0 0.0 0.00 0.00 0.00 79 1019.4
20260902081929 75 0.0 0.0 0.00 0.00 0.00 77 1019.6
20260902081432 74 0.0 0.0 0.00 0.00 0.00 76 1019.7
20260902080928 73 0.0 0.0 0.00 0.00 0.00 77 1019.6
20260902080432 73 0.0 0.0 0.00 0.00 0.00 77 1019.2
20260902075928 73 0.0 0.0 0.00 0.00 0.00 79 1018.5
20260902075431 73 0.0 0.0 0.00 0.00 0.00 78 1018.9
20260902074928 72 0.0 0.0 0.00 0.00 0.00 78 1019.6
20260902074431 72 0.0 0.0 0.00 0.00 0.00 79 1019.0
20260902073928 72 0.0 0.0 0.00 0.00 0.00 79 1019.1
20260902073431 72 0.0 0.0 0.00 0.00 0.00 79 1019.4
20260902072927 72 0.0 0.0 0.00 0.00 0.00 79 1019.3
20260902072431 72 0.0 0.0 0.00 0.00 0.00 79 1019.2
20260902071927 72 0.0 0.0 0.00 0.00 0.00 79 1018.7
20260902071430 72 0.0 0.0 0.00 0.00 0.00 79 1018.6
20260902070927 71 0.0 0.0 0.00 0.00 0.00 80 1019.2
20260902063926 69 0.0 0.0 0.00 0.00 0.00 86 1019.5
20260902063429 68 0.0 0.0 0.00 0.00 0.00 87 1019.5
20260902062926 68 0.0 0.0 0.00 0.00 0.00 88 1019.2
20260902062429 67 0.0 0.0 0.00 0.00 0.00 88 1019.2
20260902061932 66 0.0 0.0 0.00 0.00 0.00 90 1018.9
20260902061429 66 0.0 0.0 0.00 0.00 0.00 90 1019.2
20260902060932 65 0.0 0.0 0.00 0.00 0.00 91 1018.9
20260902060429 65 0.0 0.0 0.00 0.00 0.00 91 1019.5
20260902055932 65 0.0 0.0 0.00 0.00 0.00 91 1019.5
20260902055428 65 0.0 0.0 0.00 0.00 0.00 92 1019.1
20260902054932 64 0.0 0.0 0.00 0.00 0.00 92 1019.5
20260902054428 64 0.0 0.0 0.00 0.00 0.00 92 1019.2
20260902053931 64 0.0 0.0 0.00 0.00 0.00 92 1019.2
20260902053428 64 0.0 0.0 0.00 0.00 0.00 92 1019.5
20260902052931 64 0.0 0.0 0.00 0.00 0.00 92 1019.5
20260902052427 64 0.0 0.0 0.00 0.00 0.00 92 1019.2
20260902051931 64 0.0 0.0 0.00 0.00 0.00 92 1019.5
20260902051427 64 0.0 0.0 0.00 0.00 0.00 91 1019.2
20260902050930 64 0.0 0.0 0.00 0.00 0.00 91 1019.5
20260902045930 64 0.0 0.0 0.00 0.00 0.00 91 1019.1
20260902045427 64 0.0 0.0 0.00 0.00 0.00 91 1019.2
20260902044930 64 0.0 0.0 0.00 0.00 0.00 92 1019.5
20260902044426 64 0.0 0.0 0.00 0.00 0.00 92 1019.2
20260902043930 63 0.0 0.0 0.00 0.00 0.00 92 1018.9
20260902043426 63 0.0 0.0 0.00 0.00 0.00 93 1019.2
20260902042929 63 0.0 0.0 0.00 0.00 0.00 93 1019.5
20260902042426 63 0.0 0.0 0.00 0.00 0.00 93 1018.8
20260902041929 63 0.0 0.0 0.00 0.00 0.00 92 1019.2
20260902041432 63 0.0 0.0 0.00 0.00 0.00 92 1018.8
20260902040929 63 0.0 0.0 0.00 0.00 0.00 92 1019.1
20260902040432 63 0.0 0.0 0.00 0.00 0.00 91 1018.9
20260902035929 64 0.0 0.0 0.00 0.00 0.00 91 1019.2
20260902035432 64 0.0 0.0 0.00 0.00 0.00 91 1019.2
20260902034928 64 0.0 0.0 0.00 0.00 0.00 91 1019.2
20260902034432 64 0.0 0.0 0.00 0.00 0.00 91 1019.2
20260902033928 64 0.0 0.0 0.00 0.00 0.00 91 1018.7
20260902033431 64 0.0 0.0 0.00 0.00 0.00 91 1018.8
20260902032928 63 0.0 0.0 0.00 0.00 0.00 92 1019.2
20260902032431 63 0.0 0.0 0.00 0.00 0.00 91 1018.9
20260902031928 63 0.0 0.0 0.00 0.00 0.00 92 1019.5
20260902023926 64 0.0 0.0 0.00 0.00 0.00 91 1018.9
20260902023430 64 0.0 0.0 0.00 0.00 0.00 91 1019.2
20260902022926 64 0.0 0.0 0.00 0.00 0.00 90 1019.2
20260902022429 64 0.0 0.0 0.00 0.00 0.00 90 1018.9
20260902021926 64 0.0 0.0 0.00 0.00 0.00 91 1019.2
20260902021429 64 0.0 0.0 0.00 0.00 0.00 91 1019.2
20260902020926 64 0.0 0.0 0.00 0.00 0.00 91 1019.5
20260902020429 64 0.0 0.0 0.00 0.00 0.00 91 1018.6
20260902015932 64 0.0 0.0 0.00 0.00 0.00 91 1019.2
20260902015429 64 0.0 0.0 0.00 0.00 0.00 91 1019.2
20260902014932 64 0.0 0.0 0.00 0.00 0.00 92 1018.9
20260902014428 64 0.0 0.0 0.00 0.00 0.00 92 1019.5
20260902013932 64 0.0 0.0 0.00 0.00 0.00 91 1019.2
20260902013428 64 0.0 0.0 0.00 0.00 0.00 91 1019.2
20260902012931 64 0.0 0.0 0.00 0.00 0.00 92 1019.2
20260902012428 63 0.0 0.0 0.00 0.00 0.00 91 1018.9
20260902011931 64 0.0 0.0 0.00 0.00 0.00 91 1018.9
20260902011427 64 0.0 0.0 0.00 0.00 0.00 91 1019.2
20260902010931 64 0.0 0.0 0.00 0.00 0.00 91 1019.5
20260902010427 64 0.0 0.0 0.00 0.00 0.00 91 1019.5
20260902005427 64 0.0 0.0 0.00 0.00 0.00 91 1018.9
20260902004930 64 0.0 0.0 0.00 0.00 0.00 91 1019.1
20260902004427 64 0.0 0.0 0.00 0.00 0.00 91 1018.9
20260902003930 64 0.0 0.0 0.00 0.00 0.00 90 1018.6
20260902003427 64 0.0 0.0 0.00 0.00 0.00 90 1019.5
20260902002930 64 0.0 0.0 0.00 0.00 0.00 90 1018.5
20260902002426 64 0.0 0.0 0.00 0.00 0.00 90 1019.2
20260902001930 64 0.0 0.0 0.00 0.00 0.00 90 1018.8
20260902001426 64 0.0 0.0 0.00 0.00 0.00 90 1019.2
20260902000929 64 0.0 0.0 0.00 0.00 0.00 90 1019.5
20260902000426 64 0.0 0.0 0.00 0.00 0.00 90 1019.2
20260901235929 65 0.0 0.0 0.00 0.00 0.00 89 1019.5
20260901235432 64 0.0 0.0 0.00 0.00 0.00 89 1019.5
20260901234929 65 0.0 0.0 0.00 0.00 0.00 89 1019.2
20260901234432 65 0.0 0.0 0.00 0.00 0.00 89 1019.1
20260901233929 65 0.0 0.0 0.00 0.00 0.00 89 1018.5
20260901233432 65 0.0 0.0 0.00 0.00 0.00 89 1018.9
20260901232928 65 0.0 0.0 0.00 0.00 0.00 88 1019.2
20260901232432 65 0.0 0.0 0.00 0.00 0.00 88 1019.0
20260901231928 65 0.0 0.0 0.00 0.00 0.00 88 1019.5
20260901231431 65 0.0 0.0 0.00 0.00 0.00 88 1019.2
20260901223927 65 0.0 0.0 0.00 0.00 0.00 89 1019.5
20260901223430 65 0.0 0.0 0.00 0.00 0.00 89 1019.6
20260901222927 65 0.0 0.0 0.00 0.00 0.00 89 1019.2
20260901222430 65 0.0 0.0 0.00 0.00 0.00 89 1019.1
20260901221926 65 0.0 0.0 0.00 0.00 0.00 89 1019.2
20260901221430 65 0.0 0.0 0.00 0.00 0.00 88 1019.6
20260901220926 66 0.0 0.0 0.00 0.00 0.00 88 1019.2
20260901220426 65 0.0 0.0 0.00 0.00 0.00 89 1018.4
20260901215929 66 0.0 0.0 0.00 0.00 0.00 89 1019.5
20260901215432 65 0.0 0.0 0.00 0.00 0.00 88 1018.7
20260901214929 65 0.0 0.0 0.00 0.00 0.00 87 1019.2
20260901214432 66 0.0 0.0 0.00 0.00 0.00 86 1019.5
20260901213928 66 0.0 0.0 0.00 0.00 0.00 85 1018.9
20260901213432 66 0.0 0.0 0.00 0.00 0.00 85 1019.2
20260901212928 66 0.0 0.0 0.00 0.00 0.00 86 1019.2
20260901212431 66 0.0 0.0 0.00 0.00 0.00 86 1018.7
20260901211928 66 0.0 0.0 0.00 0.00 0.00 87 1019.5
20260901210927 66 0.0 0.0 0.00 0.00 0.00 88 1018.1
20260901210431 67 0.0 0.0 0.00 0.00 0.00 88 1019.0
20260901205927 67 0.0 0.0 0.00 0.00 0.00 88 1019.1
20260901205431 67 0.0 0.0 0.00 0.00 0.00 88 1019.2
20260901204927 66 0.0 0.0 0.00 0.00 0.00 87 1019.5
20260901204430 66 0.0 0.0 0.00 0.00 0.00 88 1018.7
20260901203927 67 0.0 0.0 0.00 0.00 0.00 87 1019.2
20260901203430 67 0.0 0.0 0.00 0.00 0.00 86 1019.5
20260901202926 67 0.0 0.0 0.00 0.00 0.00 86 1019.3
20260901202430 67 0.0 0.0 0.00 0.00 0.00 87 1019.2
20260901201926 67 0.0 0.0 0.00 0.00 0.00 87 1019.2
20260901201429 67 0.0 0.0 0.00 0.00 0.00 87 1019.1
20260901200926 67 0.0 0.0 0.00 0.00 0.00 86 1019.5
20260901200429 67 0.0 0.0 0.00 0.00 0.00 86 1019.2
20260901195926 67 0.0 0.0 0.00 0.00 0.00 85 1019.2
20260901195429 67 0.0 0.0 0.00 0.00 0.00 86 1019.5
20260901194932 67 0.0 0.0 0.00 0.00 0.00 86 1019.5
20260901194429 67 0.0 0.0 0.00 0.00 0.00 85 1019.3
20260901193932 68 0.0 0.0 0.00 0.00 0.00 84 1019.2
20260901193428 68 0.0 0.0 0.00 0.00 0.00 84 1019.0
20260901183427 69 0.0 0.0 0.00 0.00 0.00 85 1017.4
20260901182930 70 0.0 0.0 0.00 0.00 0.00 83 1018.6
20260901182426 70 0.0 0.0 0.00 0.00 0.00 85 1017.8
20260901181930 70 0.0 0.0 0.00 0.00 0.00 83 1017.8
20260901181426 71 0.0 0.0 0.00 0.00 0.00 85 1017.6
20260901180930 71 0.0 0.0 0.00 0.00 0.00 86 1018.0
20260901180426 72 0.0 0.0 0.00 0.00 0.00 88 1018.2
20260901175929 72 0.0 0.0 0.00 0.00 0.00 87 1017.4
20260901175426 72 0.0 0.0 0.00 0.00 0.00 86 1017.0
20260901174929 72 0.0 0.0 0.00 0.00 0.00 86 1016.7
20260901174432 73 0.0 0.0 0.00 0.00 0.00 85 1017.2
20260901173929 73 0.0 0.0 0.00 0.00 0.00 85 1018.3
20260901173432 73 0.0 0.0 0.00 0.00 0.00 85 1017.6
20260901172928 74 0.0 0.0 0.00 0.00 0.00 85 1017.1
20260901172432 73 0.0 0.0 0.00 0.00 0.00 85 1016.5
20260901171928 74 0.0 0.0 0.00 0.00 0.00 84 1017.3
20260901171431 74 0.0 0.0 0.00 0.00 0.00 83 1017.2
20260901170928 74 0.0 0.0 0.00 0.00 0.00 83 1017.3
20260901170431 75 0.0 0.0 0.00 0.00 0.00 82 1017.1
20260901165928 75 0.0 0.0 0.00 0.00 0.00 81 1016.4
20260901164927 75 0.0 0.0 0.00 0.00 0.00 81 1016.7
20260901164431 76 0.0 0.0 0.00 0.00 0.00 78 1016.7
20260901163927 76 0.0 0.0 0.00 0.00 0.00 78 1016.8
20260901163430 76 0.0 0.0 0.00 0.00 0.00 79 1017.3
20260901162927 76 0.0 0.0 0.00 0.00 0.00 77 1017.1
20260901162430 77 0.0 0.0 0.00 0.00 0.00 77 1016.5
20260901161927 79 0.0 0.0 0.00 0.00 0.00 73 1016.0
20260901161430 80 0.0 0.0 0.00 0.00 0.00 71 1017.0
20260901160926 80 0.0 0.0 0.00 0.00 0.00 73 1016.3
20260901160430 80 0.0 0.0 0.00 0.00 0.00 71 1015.9
20260901155926 81 0.0 0.0 0.00 0.00 0.00 71 1016.9
20260901155429 81 0.0 0.0 0.00 0.00 0.00 70 1016.6
20260901154926 82 0.0 0.0 0.00 0.00 0.00 67 1017.4
20260901154429 82 0.0 0.0 0.00 0.00 0.00 67 1016.8
20260901153926 81 0.0 0.0 0.00 0.00 0.00 70 1016.5